Location: Heiligenberg
(48.5381°N, 7.3897°E)
Time: 21:04:59
(UTC+00:00)

Helios 1B rocket - Pass Details

Date: 26 May 2022
Orbit: 569 x 578 km, 98.2° (Epoch: 04 July)

Event Time Altitude Azimuth Distance (km) Brightness Sun altitude
Rises 02:37:39 0° 16° (NNE) 2,787 7.1 -8.5°
Reaches altitude 10° 02:39:50 10° 19° (NNE) 1,884 6.2 -8.2°
Maximum altitude 02:43:53 66° 102° (ESE) 627 2.8 -7.7°
Drops below altitude 10° 02:47:54 10° 185° (S) 1,868 4.6 -7.3°
Enters shadow 02:49:26 - 188° (S) 2,506 5.2 -7.1°
